Location: Bennemühlen
(52.5740°N, 9.7135°E)
Time: 19:09:09
(UTC+00:00)

CENTAUR R/B - Pass Details

Date: 19 May 2025
Orbit: 644 x 1537 km, 63.4° (Epoch: 20 June)

Event Time Altitude Azimuth Distance (km) Brightness Sun altitude
Rises 23:12:35 0° 313° (NW) 4,083 6.4 -17.4°
Reaches altitude 10° 23:15:09 10° 312° (NW) 3,230 5.8 -17.4°
Maximum altitude 23:23:12 77° 229° (SW) 1,453 3.2 -17.4°
Enters shadow 23:31:31 14° 146° (SE) 3,374 4.8 -17.4°
